User: anonymous   Login
Location: Albany
(35.0000°S, 118.0000°E)
Time: 02:54:52
(UTC-05:00)
Language:

Cosmos 2227 Rocket - Orbit

View from above orbital plane
View from above orbital plane
View from above satellite
View from above satellite

Ground track
Ground track

The orbit data is extracted from the following two-line orbital elements,

1 22285U 92093B   15028.57897838 -.00000214  00000-0 -86084-4 0  5088
2 22285 071.0194 238.5465 0004533 343.4628 016.6346 14.14949826139389
Epoch (UTC): 28 January 2015 13:53:43
Eccentricity: 0.0004533
inclination: 71.0194°
perigee height: 839 km
apogee height: 846 km
right ascension of ascending node: 238.5465°
argument of perigee: 343.4628°
revolutions per day: 14.14949826
mean anomaly at epoch: 16.6346°
orbit number at epoch: 13938

The dashed part of the orbit path shows where the satellite is in the earth's shadow,  

DLR